Total_Precipitation_Accumulation
1.87 1.80 1.69 1.58 1.59 1.63 1.71 1.88 2.11 2.01 1.60 1.26 1.23 1.27 1.34 1.49 1.77 1.65 1.53 1.81 1.86 1.86 1.92 2.01 1.96 1.97 2.07 2.15 2.23 2.32 2.37 2.41 2.40 2.35 2.30 2.22 2.21 2.33
1.65 1.69 1.67 1.58 1.57 1.59 1.67 1.79 1.95 2.07 1.89 1.40 1.23 1.28 1.42 1.52 1.79 1.66 1.58 1.80 1.73 1.77 1.74 1.73 1.68 1.67 1.74 1.84 1.85 1.85 1.86 1.94 2.05 2.11 2.18 2.24 2.26 2.30
1.48 1.54 1.54 1.48 1.54 1.54 1.57 1.67 1.79 1.96 1.99 1.61 1.37 1.37 1.48 1.52 1.55 1.46 1.42 1.42 1.40 1.59 1.51 1.48 1.48 1.46 1.47 1.57 1.66 1.67 1.64 1.67 1.77 1.85 1.91 1.97 2.02 2.03
1.37 1.42 1.46 1.46 1.50 1.52 1.57 1.63 1.66 1.73 1.82 1.70 1.45 1.36 1.32 1.29 1.27 1.26 1.23 1.17 1.13 1.36 1.34 1.28 1.26 1.24 1.21 1.24 1.39 1.49 1.47 1.45 1.48 1.51 1.56 1.59 1.64 1.73
1.39 1.39 1.40 1.47 1.52 1.53 1.57 1.61 1.58 1.52 1.51 1.48 1.32 1.17 1.14 1.12 1.19 1.16 1.14 1.13 1.03 1.16 1.25 1.21 1.18 1.13 1.09 1.09 1.16 1.27 1.32 1.31 1.28 1.29 1.35 1.42 1.45 1.52
1.42 1.43 1.43 1.50 1.59 1.62 1.62 1.60 1.54 1.48 1.40 1.36 1.28 1.17 1.10 1.05 1.12 1.17 1.16 1.15 1.08 0.97 1.12 1.14 1.15 1.14 1.07 1.00 0.98 1.00 1.09 1.24 1.27 1.27 1.26 1.29 1.33 1.39
1.34 1.43 1.47 1.58 1.64 1.60 1.48 1.38 1.33 1.32 1.28 1.26 1.19 1.10 1.05 1.03 1.03 0.98 0.99 1.03 1.07 0.99 1.00 1.02 1.01 0.98 0.96 0.98 0.98 0.98 1.01 1.12 1.25 1.29 1.30 1.29 1.27 1.31
1.19 1.25 1.33 1.41 1.34 1.34 1.30 1.23 1.25 1.31 1.29 1.19 1.05 0.92 0.79 0.76 0.78 0.87 0.96 1.09 1.16 0.97 0.93 0.97 0.96 1.00 0.91 0.88 1.00 0.98 0.98 1.08 1.19 1.27 1.31 1.34 1.32 1.29
1.07 1.08 1.07 1.03 1.04 0.92 0.98 1.00 1.01 1.05 1.05 1.00 0.96 0.77 0.67 0.65 0.80 0.94 0.97 0.99 0.91 0.80 0.90 1.06 0.99 0.97 0.85 0.84 0.99 0.98 0.96 1.01 1.13 1.24 1.28 1.33 1.36 1.36
0.84 0.84 0.85 0.82 0.82 0.87 0.88 0.88 0.77 0.72 0.71 0.67 0.65 0.61 0.62 0.70 0.87 1.04 1.07 1.09 0.97 0.87 0.92 1.13 1.02 0.94 0.86 0.81 0.90 0.91 0.94 0.98 1.06 1.17 1.27 1.30 1.31 1.34
0.65 0.66 0.69 0.68 0.78 0.93 0.93 0.89 0.79 0.71 0.71 0.75 0.75 0.74 0.81 0.87 0.95 1.12 1.29 1.44 1.36 1.06 0.92 0.98 0.92 0.89 0.91 0.90 0.92 0.97 0.94 0.95 0.98 1.06 1.17 1.27 1.30 1.34
0.54 0.57 0.67 0.70 0.83 0.98 0.98 0.94 0.89 0.76 0.72 0.76 0.75 0.74 0.72 0.76 0.87 0.88 1.03 1.38 1.41 1.18 0.83 0.88 0.91 1.03 1.26 1.00 0.93 0.98 0.98 0.99 1.03 1.06 1.11 1.21 1.32 1.37
0.59 0.55 0.58 0.73 0.83 0.95 1.02 0.95 0.92 0.89 0.85 0.85 0.85 0.81 0.79 0.81 0.80 0.77 0.82 1.11 1.40 1.19 0.76 1.01 1.21 1.14 1.38 1.14 0.95 0.97 0.96 0.95 1.01 1.10 1.15 1.20 1.32 1.43
0.62 0.52 0.52 0.69 0.82 0.88 0.89 0.93 1.02 1.03 0.94 0.93 0.93 0.90 0.85 0.81 0.78 0.76 0.78 0.84 0.96 0.98 0.81 1.09 1.51 1.33 1.51 1.33 1.00 0.95 0.93 0.92 0.95 1.02 1.11 1.25 1.31 1.42
0.61 0.64 0.68 0.76 0.80 0.80 0.82 0.88 0.93 0.90 0.91 0.92 0.86 0.77 0.70 0.70 0.75 0.83 0.89 0.91 0.92 0.92 0.89 0.95 1.19 1.31 1.58 1.58 1.16 0.92 0.95 0.98 0.97 1.03 1.12 1.24 1.29 1.40
0.68 0.69 0.71 0.76 0.79 0.80 0.83 0.82 0.81 0.84 0.90 0.89 0.78 0.71 0.72 0.76 0.83 0.86 0.95 1.00 1.11 1.05 0.93 0.87 0.95 1.27 1.54 1.28 1.23 1.09 0.94 1.05 1.02 1.10 1.19 1.22 1.23 1.26
0.84 0.83 0.77 0.73 0.76 0.77 0.76 0.77 0.78 0.83 0.89 0.86 0.87 0.87 0.85 0.85 0.86 0.85 0.95 1.05 1.13 0.97 0.88 0.89 0.96 1.10 1.24 1.29 1.33 1.10 0.98 0.99 1.00 1.14 1.35 1.42 1.29 1.25
0.95 0.88 0.75 0.68 0.67 0.68 0.70 0.74 0.77 0.80 0.83 0.89 0.96 1.00 1.01 0.99 0.98 0.94 1.00 1.12 1.11 0.93 0.86 0.89 1.04 1.29 1.31 1.20 1.09 0.99 0.97 0.98 1.01 1.13 1.33 1.58 1.40 1.16
0.88 0.73 0.64 0.62 0.62 0.64 0.68 0.73 0.76 0.77 0.86 0.98 1.04 1.05 1.09 1.11 1.10 1.07 1.05 1.12 1.12 1.02 0.94 0.96 1.18 1.62 1.72 1.18 0.86 0.81 0.96 1.08 1.13 1.20 1.27 1.44 1.46 1.20
0.74 0.66 0.63 0.63 0.66 0.71 0.74 0.78 0.80 0.83 0.92 0.99 1.02 1.06 1.13 1.22 1.23 1.15 1.10 1.14 1.18 1.14 1.07 1.01 1.11 1.47 1.88 1.51 1.14 0.80 0.80 1.10 1.42 1.47 1.24 1.17 1.20 1.15
0.67 0.66 0.66 0.69 0.73 0.78 0.82 0.85 0.89 0.93 0.94 1.00 1.03 1.03 1.12 1.28 1.25 1.09 1.11 1.16 1.25 1.24 1.14 0.93 0.85 1.05 1.51 1.89 1.61 0.95 0.85 0.93 1.23 1.66 1.71 1.68 1.47 1.26
0.69 0.72 0.73 0.77 0.83 0.87 0.91 0.94 0.97 0.95 0.97 1.02 1.02 1.04 1.11 1.25 1.26 1.15 1.15 1.23 1.19 1.14 1.07 0.95 0.94 1.16 1.55 1.87 1.44 0.92 0.86 0.91 0.97 1.07 1.35 1.82 2.30 1.99
0.81 0.83 0.82 0.84 0.89 0.94 0.97 0.98 0.98 0.93 0.92 0.99 1.03 1.06 1.13 1.22 1.17 1.18 1.17 1.20 1.28 1.29 1.26 1.19 1.10 1.14 1.23 1.30 1.30 1.09 0.95 0.91 0.92 0.95 0.98 1.01 1.12 1.23